When you browse on this site, cookies collect data to enhance your experience and personalize the content and advertising you see.
Visit our Privacy Policy to learn more. By continuing to use the site, you agree to this use of cookies and data.
  • In Sweden
  • List of Countries
  • For 7 days
  • Water Temperature
  • Satellite Maps
  • Weather Map
  • Weather Widgets
  • user-avatar
    Login

    Hourly Weather Orlovka

    Today, 23 April, Tuesday

    Time Temperature Precipitation Wind Pressure Humidity
    00:00 +7°C° 0 mm 1 mps 754 mmHg 42%
    01:00 +7°C° 0 mm 1 mps 754 mmHg 43%
    02:00 +7°C° 0 mm 1 mps 754 mmHg 44%
    03:00 +6°C° 0 mm 1 mps 754 mmHg 44%
    04:00 +5°C° 0 mm 2 mps 754 mmHg 45%
    05:00 +4°C° 0 mm 3 mps 753 mmHg 43%
    06:00 +5°C° 0 mm 3 mps 753 mmHg 40%
    07:00 +7°C° 0 mm 3 mps 753 mmHg 38%
    08:00 +8°C° 0 mm 3 mps 753 mmHg 35%
    09:00 +9°C° 0 mm 3 mps 753 mmHg 32%
    10:00 +10°C° 0 mm 3 mps 752 mmHg 30%
    11:00 +11°C° 0 mm 3 mps 752 mmHg 29%
    12:00 +11°C° 0 mm 3 mps 752 mmHg 28%
    13:00 +12°C° 0 mm 3 mps 751 mmHg 28%
    14:00 +12°C° 0 mm 3 mps 751 mmHg 28%
    15:00 +12°C° 0 mm 3 mps 751 mmHg 30%
    16:00 +12°C° 0 mm 3 mps 751 mmHg 33%
    17:00 +11°C° 0 mm 3 mps 750 mmHg 35%
    18:00 +10°C° 0.4 mm 3 mps 750 mmHg 44%
    19:00 +9°C° 0.4 mm 2 mps 750 mmHg 53%
    20:00 +8°C° 0.4 mm 2 mps 750 mmHg 63%
    21:00 +7°C° 0.2 mm 2 mps 750 mmHg 66%
    22:00 +7°C° 0.2 mm 2 mps 750 mmHg 69%
    23:00 +7°C° 0.2 mm 1 mps 750 mmHg 73%

    Tomorrow, 24 April, Wednesday

    Time Temperature Precipitation Wind Pressure Humidity
    00:00 +6°C° 0 mm 2 mps 750 mmHg 74%
    01:00 +5°C° 0 mm 2 mps 750 mmHg 76%
    02:00 +5°C° 0 mm 2 mps 749 mmHg 77%
    03:00 +5°C° 0 mm 2 mps 749 mmHg 76%
    04:00 +5°C° 0 mm 2 mps 749 mmHg 75%
    05:00 +4°C° 0 mm 3 mps 749 mmHg 74%
    06:00 +7°C° 0 mm 3 mps 749 mmHg 66%
    07:00 +8°C° 0 mm 3 mps 749 mmHg 57%
    08:00 +10°C° 0 mm 3 mps 749 mmHg 49%
    09:00 +11°C° 0 mm 4 mps 749 mmHg 45%
    10:00 +13°C° 0 mm 4 mps 749 mmHg 42%
    11:00 +14°C° 0 mm 5 mps 748 mmHg 38%
    12:00 +15°C° 0 mm 5 mps 748 mmHg 38%
    13:00 +15°C° 0 mm 5 mps 748 mmHg 38%
    14:00 +15°C° 0 mm 4 mps 747 mmHg 37%
    15:00 +15°C° 0 mm 4 mps 747 mmHg 37%
    16:00 +15°C° 0 mm 4 mps 747 mmHg 36%
    17:00 +15°C° 0 mm 4 mps 746 mmHg 36%
    18:00 +14°C° 0 mm 4 mps 746 mmHg 39%
    19:00 +13°C° 0 mm 4 mps 746 mmHg 42%
    20:00 +12°C° 0 mm 4 mps 746 mmHg 45%
    21:00 +12°C° 0 mm 4 mps 745 mmHg 47%
    22:00 +11°C° 0 mm 4 mps 745 mmHg 48%
    23:00 +11°C° 0 mm 4 mps 745 mmHg 49%

    Day after tomorrow, 25 April, Thursday

    Time Temperature Precipitation Wind Pressure Humidity
    00:00 +11°C° 0 mm 4 mps 744 mmHg 48%
    01:00 +11°C° 0 mm 4 mps 744 mmHg 48%
    02:00 +11°C° 0 mm 4 mps 743 mmHg 47%
    03:00 +10°C° 0 mm 4 mps 743 mmHg 49%
    04:00 +10°C° 0 mm 4 mps 743 mmHg 50%
    05:00 +10°C° 0 mm 4 mps 743 mmHg 51%
    06:00 +10°C° 0 mm 5 mps 743 mmHg 48%
    07:00 +12°C° 0 mm 5 mps 743 mmHg 45%
    08:00 +13°C° 0 mm 6 mps 743 mmHg 42%
    09:00 +14°C° 0 mm 7 mps 743 mmHg 40%
    10:00 +15°C° 0 mm 8 mps 743 mmHg 38%
    11:00 +16°C° 0 mm 9 mps 743 mmHg 35%
    12:00 +16°C° 0 mm 9 mps 743 mmHg 36%
    13:00 +15°C° 0 mm 9 mps 743 mmHg 36%
    14:00 +15°C° 0 mm 9 mps 743 mmHg 37%
    15:00 +15°C° 0 mm 9 mps 743 mmHg 38%
    16:00 +15°C° 0 mm 8 mps 743 mmHg 39%
    17:00 +13°C° 0 mm 8 mps 744 mmHg 40%
    18:00 +12°C° 0.2 mm 7 mps 744 mmHg 47%
    19:00 +11°C° 0.2 mm 6 mps 744 mmHg 54%
    20:00 +10°C° 0.2 mm 5 mps 744 mmHg 61%
    21:00 +10°C° 0.1 mm 6 mps 743 mmHg 63%
    22:00 +10°C° 0.1 mm 7 mps 743 mmHg 65%
    23:00 +10°C° 0.1 mm 8 mps 743 mmHg 67%

    26 April, Friday

    Time Temperature Precipitation Wind Pressure Humidity
    00:00 +9°C° 0 mm 8 mps 742 mmHg 67%
    01:00 +9°C° 0 mm 8 mps 742 mmHg 68%
    02:00 +8°C° 0 mm 7 mps 742 mmHg 69%
    03:00 +8°C° 0 mm 7 mps 742 mmHg 71%
    04:00 +8°C° 0 mm 7 mps 742 mmHg 73%
    05:00 +6°C° 0 mm 7 mps 742 mmHg 74%
    06:00 +6°C° 0 mm 7 mps 742 mmHg 70%
    07:00 +8°C° 0 mm 7 mps 743 mmHg 66%
    08:00 +8°C° 0 mm 7 mps 743 mmHg 62%
    09:00 +9°C° 0.1 mm 6 mps 744 mmHg 61%
    10:00 +9°C° 0.1 mm 6 mps 744 mmHg 59%
    11:00 +9°C° 0.1 mm 5 mps 744 mmHg 57%
    12:00 +9°C° 0.6 mm 6 mps 744 mmHg 59%
    13:00 +9°C° 0.6 mm 6 mps 745 mmHg 60%
    14:00 +9°C° 0.6 mm 7 mps 745 mmHg 61%
    15:00 +8°C° 0.2 mm 7 mps 745 mmHg 63%
    16:00 +5°C° 0.2 mm 6 mps 745 mmHg 66%
    17:00 +4°C° 0.2 mm 6 mps 746 mmHg 68%
    18:00 +3°C° 0 mm 6 mps 747 mmHg 67%
    19:00 +3°C° 0 mm 5 mps 747 mmHg 66%
    20:00 +2°C° 0 mm 5 mps 748 mmHg 65%
    21:00 +3°C° 0 mm 4 mps 749 mmHg 63%
    22:00 +3°C° 0 mm 3 mps 749 mmHg 62%
    23:00 +3°C° 0 mm 2 mps 749 mmHg 60%

    27 April, Saturday

    Time Temperature Precipitation Wind Pressure Humidity
    00:00 +3°C° 0 mm 2 mps 749 mmHg 62%
    01:00 +3°C° 0 mm 1 mps 749 mmHg 64%
    02:00 +3°C° 0 mm 1 mps 749 mmHg 66%
    03:00 +3°C° 0 mm 1 mps 748 mmHg 67%
    04:00 +2°C° 0 mm 2 mps 748 mmHg 68%
    05:00 +1°C° 0 mm 2 mps 748 mmHg 69%
    06:00 +2°C° 0 mm 2 mps 747 mmHg 65%
    07:00 +3°C° 0 mm 2 mps 747 mmHg 60%
    08:00 +3°C° 0 mm 3 mps 746 mmHg 55%
    09:00 +5°C° 0 mm 3 mps 746 mmHg 50%
    10:00 +6°C° 0 mm 4 mps 746 mmHg 46%
    11:00 +7°C° 0 mm 4 mps 745 mmHg 41%
    12:00 +7°C° 0.1 mm 6 mps 746 mmHg 45%
    13:00 +6°C° 0.1 mm 8 mps 746 mmHg 49%
    14:00 +5°C° 0.1 mm 10 mps 746 mmHg 54%
    15:00 +5°C° 0 mm 10 mps 747 mmHg 49%
    16:00 +3°C° 0 mm 10 mps 748 mmHg 45%
    17:00 +2°C° 0 mm 9 mps 749 mmHg 40%
    18:00 +1°C° 0 mm 8 mps 750 mmHg 43%
    19:00 +1°C° 0 mm 6 mps 751 mmHg 45%
    20:00 0°C° 0 mm 4 mps 752 mmHg 48%
    21:00 -1°C° 0 mm 4 mps 753 mmHg 50%
    22:00 0°C° 0 mm 3 mps 754 mmHg 52%
    23:00 -1°C° 0 mm 3 mps 755 mmHg 54%

    28 April, Sunday

    Time Temperature Precipitation Wind Pressure Humidity
    00:00 -1°C° 0 mm 3 mps 755 mmHg 55%
    01:00 -1°C° 0 mm 3 mps 755 mmHg 56%
    02:00 -2°C° 0 mm 3 mps 755 mmHg 57%
    03:00 -1°C° 0 mm 3 mps 756 mmHg 57%
    04:00 -2°C° 0 mm 4 mps 756 mmHg 56%
    05:00 -2°C° 0 mm 4 mps 756 mmHg 56%
    06:00 0°C° 0 mm 5 mps 756 mmHg 49%
    07:00 +1°C° 0 mm 6 mps 756 mmHg 43%
    08:00 +2°C° 0 mm 8 mps 755 mmHg 36%
    09:00 +5°C° 0 mm 8 mps 755 mmHg 34%
    10:00 +6°C° 0 mm 8 mps 755 mmHg 32%
    11:00 +8°C° 0 mm 9 mps 754 mmHg 30%
    12:00 +10°C° 0 mm 9 mps 753 mmHg 29%
    13:00 +11°C° 0 mm 9 mps 752 mmHg 28%
    14:00 +12°C° 0 mm 9 mps 752 mmHg 27%
    15:00 +12°C° 0 mm 9 mps 751 mmHg 28%
    16:00 +13°C° 0 mm 9 mps 750 mmHg 29%
    17:00 +13°C° 0 mm 9 mps 749 mmHg 30%
    18:00 +12°C° 0 mm 8 mps 749 mmHg 34%
    19:00 +11°C° 0 mm 7 mps 749 mmHg 38%
    20:00 +10°C° 0 mm 7 mps 748 mmHg 42%
    21:00 +10°C° 0 mm 7 mps 748 mmHg 42%
    22:00 +10°C° 0 mm 8 mps 747 mmHg 43%
    23:00 +10°C° 0 mm 9 mps 747 mmHg 44%
    Show more